Location: Mount Kobau Star Party
(49.1167°N, 119.7333°W)
Time: 08:13:10
(UTC-07:00)

ACS3 Solar Sail - Pass Details

Date: 19 June 2024
Orbit: 992 x 1023 km, 97.4° (Epoch: 12 July)

Event Time Altitude Azimuth Distance (km) Brightness Sun altitude
Exits shadow 00:13:53 - 225° (SW) 3,409 7.3 -16.7°
Reaches altitude 10° 00:16:31 10° 242° (WSW) 2,764 7.0 -16.8°
Maximum altitude 00:20:01 15° 277° (W) 2,390 7.0 -16.9°
Drops below altitude 10° 00:23:32 10° 312° (NW) 2,767 7.9 -17.0°
Sets 00:27:16 0° 334° (NNW) 3,719 9.3 -17.1°
